Adelaide, Australia

7:29 AM ACST on July 25, 2017 (GMT +0930)
Adelaide International

Weather History for YPAD - March, 2014

Change the Weather History Date:

Sunday, March 30, 2014

  Actual Average Record
Temperature  
Mean Temperature 71 °F -  
Max Temperature 89 °F 72 °F 91 °F (2005)
Min Temperature 53 °F 53 °F 44 °F (2001)
Cooling Degree Days 6    
Growing Degree Days 21 (Base 50)    
Moisture  
Dew Point 51 °F    
Average Humidity 56    
Maximum Humidity 94    
Minimum Humidity 12    
Precipitation  
Precipitation 0.00 in 0.05 in - ()
Sea Level Pressure  
Sea Level Pressure 30.02 in    
Wind  
Wind Speed 5 mph ()    
Max Wind Speed 12 mph    
Max Gust Speed -    
Visibility 10.9 miles    
Events      
Averages and records for this station are not official NWS values.
T = Trace of Precipitation, MM = Missing Value Source: Averaged Metar Reports

Daily Weather History Graph

Daily Weather History Graph

Search for Another Location

Airport or City:

Trip Planner

Search our weather history database for the weather conditions in past years. The results will help you decide how hot, cold, wet, or windy it might be!

Date:

Astronomy

Mar. 30, 2014 Rise Set
Actual Time 7:26 AM ACDT 7:13 PM ACDT
Civil Twilight 7:01 AM ACDT 7:39 PM ACDT
Nautical Twilight 6:32 AM ACDT 8:08 PM ACDT
Astronomical Twilight 6:02 AM ACDT 8:37 PM ACDT
Moon 6:34 AM ACDT (3/30) 6:44 PM ACDT (3/30)
Length of Visible Light 12h 37m
Length of Day
11h 47m
Waning Crescent, 1% of the Moon is Illuminated
Mar 30
Waning Crescent
Mar 31
New
Apr 7
First Quarter
Apr 15
Full
Apr 22
Last Quarter

Hourly Weather History & Observations

Time (ACDT) Temp. Heat Index Dew Point Humidity Pressure Visibility Wind Dir Wind Speed Gust Speed Precip Events Conditions
12:00 AM 60 °F - 54 °F 76% 30.05 in 22 mi East 4.6 mph - -   Partly Cloudy
12:00 AM 60.8 °F - 53.6 °F 77% 30.04 in - East 4.6 mph - N/A   Clear
12:30 AM 59.0 °F - 53.6 °F 82% 30.04 in - East 4.6 mph - N/A   Clear
1:00 AM 59.0 °F - 53.6 °F 82% 30.04 in - ESE 1.2 mph - N/A   Clear
1:30 AM 58 °F - 53 °F 77% 30.05 in - Calm Calm - -  
1:30 AM 59.0 °F - 53.6 °F 82% 30.04 in - Calm Calm - N/A   Clear
2:00 AM 57.2 °F - 51.8 °F 82% 30.04 in - NNE 6.9 mph - N/A   Clear
2:30 AM 57.2 °F - 51.8 °F 82% 30.04 in - SE 4.6 mph - N/A   Clear
3:00 AM 56 °F - 53 °F 84% 30.04 in 22 mi SSE 1.2 mph - -   Partly Cloudy
3:00 AM 55.4 °F - 51.8 °F 88% 30.04 in - SSE 1.2 mph - N/A   Clear
3:30 AM 55.4 °F - 51.8 °F 88% 30.01 in - SE 3.5 mph - N/A   Clear
4:00 AM 53.6 °F - 51.8 °F 94% 30.01 in - East 4.6 mph - N/A   Clear
4:30 AM 54 °F - 51 °F 88% 30.02 in - ENE 4.6 mph - -  
4:30 AM 55.4 °F - 51.8 °F 88% 30.01 in - ENE 4.6 mph - N/A   Clear
5:00 AM 55.4 °F - 51.8 °F 88% 30.01 in - East 3.5 mph - N/A   Clear
5:30 AM 55.4 °F - 51.8 °F 88% 30.01 in - East 4.6 mph - N/A   Clear
6:00 AM 54 °F - 52 °F 89% 30.04 in 22 mi East 3.5 mph - -   Partly Cloudy
6:00 AM 53.6 °F - 51.8 °F 94% 30.04 in - East 3.5 mph - N/A   Clear
6:30 AM 55.4 °F - 51.8 °F 88% 30.04 in - Calm Calm - N/A   Clear
7:00 AM 55.4 °F - 51.8 °F 88% 30.04 in - Calm Calm - N/A   Clear
7:30 AM 53 °F - 50 °F 87% 30.06 in - Calm Calm - -  
7:30 AM 53.6 °F - 50.0 °F 88% 30.04 in - Calm Calm - N/A   Clear
8:00 AM 55.4 °F - 53.6 °F 94% 30.06 in - Calm Calm - N/A   Clear
8:30 AM 59.0 °F - 55.4 °F 88% 30.06 in - NE 5.8 mph - N/A   Clear
9:00 AM 63 °F - 55 °F 67% 30.08 in 19 mi NE 5.8 mph - -   Partly Cloudy
9:00 AM 62.6 °F - 55.4 °F 77% 30.06 in - NE 5.8 mph - N/A   Clear
9:30 AM 68.0 °F - 55.4 °F 64% 30.06 in - ENE 5.8 mph - N/A   Clear
10:00 AM 71.6 °F - 53.6 °F 53% 30.06 in - NE 5.8 mph - N/A   Clear
10:30 AM 76 °F - 53 °F 34% 30.08 in - NE 8.1 mph - -  
10:30 AM 75.2 °F - 53.6 °F 47% 30.06 in - NE 8.1 mph - N/A   Clear
11:00 AM 77.0 °F - 53.6 °F 44% 30.06 in - NNE 8.1 mph - N/A   Clear
11:30 AM 78.8 °F - 53.6 °F 42% 30.06 in - North 10.4 mph - N/A   Clear
12:00 PM 80 °F - 54 °F 30% 30.07 in 19 mi North 9.2 mph - -   Partly Cloudy
12:00 PM 80.6 °F 80.3 °F 53.6 °F 39% 30.06 in - North 9.2 mph - N/A   Clear
12:30 PM 80.6 °F 80.8 °F 57.2 °F 45% 30.06 in - NNE 8.1 mph - N/A   Clear
1:00 PM 77.0 °F - 59.0 °F 54% 30.04 in 6.2 mi West 9.2 mph - N/A   Mostly Cloudy
1:30 PM 82 °F - 59 °F 35% 30.04 in - WNW 5.8 mph - -  
1:30 PM 82.4 °F 82.5 °F 59.0 °F 45% 30.04 in 6.2 mi WNW 5.8 mph - N/A   Mostly Cloudy
2:00 PM 82.4 °F 82.0 °F 57.2 °F 42% 30.01 in 6.2 mi NNW 6.9 mph - N/A   Mostly Cloudy
2:30 PM 84.2 °F 82.8 °F 53.6 °F 35% 30.01 in 6.2 mi WNW 11.5 mph - N/A   Mostly Cloudy
3:00 PM 88 °F - 49 °F 17% 30.01 in 19 mi NNW 10.4 mph - -   Partly Cloudy
3:00 PM 87.8 °F - 50.0 °F 27% 30.01 in 6.2 mi NNW 10.4 mph - N/A   Mostly Cloudy
3:30 PM 87.8 °F - 48.2 °F 25% 29.98 in 6.2 mi NW 10.4 mph - N/A   Mostly Cloudy
4:00 PM 87.8 °F - 42.8 °F 21% 29.98 in 6.2 mi NW 10.4 mph - N/A   Mostly Cloudy
4:30 PM 89 °F - 43 °F 12% 29.99 in - NW 6.9 mph - -  
4:30 PM 89.6 °F - 42.8 °F 20% 29.98 in - NW 6.9 mph - N/A   Clear
5:00 PM 89.6 °F - 42.8 °F 20% 29.98 in - NW 5.8 mph - N/A   Clear
5:30 PM 89.6 °F - 42.8 °F 20% 29.98 in - NW 5.8 mph - N/A   Clear
6:00 PM 89 °F - 45 °F 13% 29.98 in 19 mi WNW 5.8 mph - -   Partly Cloudy
6:00 PM 87.8 °F - 44.6 °F 22% 29.98 in - WNW 5.8 mph - N/A   Clear
6:30 PM 87.8 °F - 46.4 °F 24% 29.98 in - North 6.9 mph - N/A   Clear
7:00 PM 84.2 °F - 48.2 °F 29% 29.98 in - NNW 5.8 mph - N/A   Clear
7:30 PM 78 °F - 50 °F 26% 29.99 in - NNE 5.8 mph - -  
7:30 PM 78.8 °F - 50.0 °F 36% 29.98 in - NNE 5.8 mph - N/A   Clear
8:00 PM 77.0 °F - 51.8 °F 41% 29.98 in - ENE 8.1 mph - N/A   Clear
8:30 PM 73.4 °F - 51.8 °F 47% 29.98 in - East 9.2 mph - N/A   Clear
9:00 PM 74 °F - 50 °F 31% 30.00 in 25 mi East 6.9 mph - -   Partly Cloudy
9:00 PM 73.4 °F - 50.0 °F 44% 29.98 in - East 6.9 mph - N/A   Clear
9:30 PM 73.4 °F - 50.0 °F 44% 29.98 in - ENE 8.1 mph - N/A   Clear
10:00 PM 71.6 °F - 51.8 °F 50% 29.98 in - NE 6.9 mph - N/A   Clear
10:30 PM 71 °F - 50 °F 37% 30.00 in - NE 5.8 mph - -  
10:30 PM 71.6 °F - 50.0 °F 46% 29.98 in - NE 5.8 mph - N/A   Clear
11:00 PM 71.6 °F - 48.2 °F 43% 29.98 in - NNE 11.5 mph - N/A   Clear
11:30 PM 73.4 °F - 50.0 °F 44% 29.98 in - NNE 9.2 mph - N/A   Clear